Theta_e
353 353 352 353 353 350 349 350 350 351 351 353 354 353 352 350 350 353 355 357 357 357 358 357 357 357 358 358 357 357 357 355 356 356 356 356 356 357 357 357 357 358 358 358 358 358 358 358 359 358 360 361 360 363 364 362 362 361 361 362 361 361 360
354 353 352 353 354 350 350 351 351 351 352 354 354 353 352 351 353 355 357 359 359 358 358 358 357 357 357 358 358 358 357 356 356 356 356 356 357 357 357 357 357 358 359 359 358 359 359 359 359 358 360 360 360 363 363 361 362 361 361 362 361 361 361
355 354 353 354 354 352 351 352 351 352 353 354 353 353 353 353 355 357 359 360 360 359 358 357 357 357 357 358 358 358 358 356 356 356 355 355 356 356 356 357 358 357 358 358 358 359 357 358 359 358 359 360 359 361 362 361 361 361 362 363 361 361 361
355 354 354 355 355 352 352 352 352 352 353 353 352 352 353 354 356 358 359 359 359 358 357 356 356 356 356 356 357 358 358 357 356 356 354 353 354 355 355 357 358 357 357 358 359 359 358 358 359 359 359 360 360 360 361 361 360 360 363 363 360 361 362
355 355 357 358 356 354 353 352 353 353 352 353 353 353 353 355 356 357 358 357 356 356 356 355 353 353 355 355 355 356 357 357 356 355 354 353 354 355 355 356 357 357 358 359 359 359 360 359 359 359 359 360 360 360 360 360 360 361 363 362 360 360 359
354 355 357 357 356 355 354 353 353 353 352 353 354 354 354 355 356 356 356 357 356 355 356 355 352 352 354 354 353 353 355 356 357 356 355 354 355 356 356 356 357 357 357 358 358 359 359 359 359 358 359 359 358 358 359 360 359 359 362 362 361 359 358
353 354 355 356 355 354 354 353 351 350 351 353 354 353 353 354 356 356 356 357 357 357 358 357 355 353 354 354 353 353 354 355 356 356 355 354 354 356 356 356 356 356 356 357 358 358 358 358 358 358 358 357 357 357 358 360 360 359 361 362 362 362 360
352 354 354 355 354 354 354 354 351 349 350 352 352 353 353 354 354 354 356 356 357 358 358 358 357 355 356 356 353 353 354 354 354 355 354 353 354 355 355 356 356 357 356 356 357 358 357 358 358 358 358 357 358 358 358 361 361 359 359 360 362 362 360
354 354 355 355 354 354 355 354 354 353 351 352 353 352 352 354 354 354 355 356 357 359 359 358 358 358 359 358 356 355 355 353 353 353 353 352 352 353 353 354 355 356 357 356 357 357 357 357 357 358 358 358 359 360 360 361 361 359 359 361 362 363 360
356 355 356 355 356 357 357 357 357 354 351 351 353 354 355 355 355 355 356 356 357 358 359 358 357 358 359 359 358 357 355 354 352 352 352 352 351 351 352 352 353 355 356 356 355 355 357 357 357 358 359 358 360 361 360 361 361 359 360 361 361 362 362
357 356 355 355 356 357 356 357 356 353 350 349 350 355 355 353 354 356 357 357 357 357 358 358 357 358 358 359 359 358 356 354 353 352 352 352 350 350 350 351 351 354 355 355 354 354 356 356 357 358 359 358 359 360 360 360 360 361 360 360 360 360 361
356 355 355 356 356 355 354 355 355 354 353 351 352 354 352 350 351 352 352 354 355 356 358 358 358 358 358 358 358 358 357 355 354 353 353 352 351 350 350 350 350 352 354 355 354 354 355 356 356 357 358 358 357 358 359 360 360 361 360 359 359 359 360
354 355 354 355 356 354 354 354 354 355 354 354 354 352 350 350 350 348 347 351 353 354 355 356 356 356 358 358 357 357 357 356 355 354 354 354 353 352 351 350 350 351 353 353 354 355 355 355 355 356 356 356 356 356 358 359 359 360 360 360 359 359 359
351 353 353 353 353 353 353 353 353 355 354 353 353 352 351 351 350 349 349 351 352 350 350 351 351 351 352 355 356 356 357 356 355 356 355 356 356 356 354 353 351 351 352 352 354 355 355 354 354 355 355 354 354 354 355 357 358 358 359 359 358 358 358
349 350 351 351 351 351 352 351 352 354 353 352 352 352 352 351 351 351 351 351 350 348 348 350 349 348 347 348 350 351 352 353 355 358 358 358 359 359 358 356 354 353 352 352 353 354 354 354 353 354 353 352 353 354 353 353 354 355 356 357 357 357 356
349 349 349 349 349 349 349 350 352 353 353 353 353 352 352 351 352 352 351 352 351 350 350 351 351 350 348 347 348 347 347 347 349 353 355 357 359 361 360 358 357 355 354 354 354 353 353 354 354 353 353 352 353 353 352 349 348 351 354 354 354 355 355
348 347 346 345 346 345 345 346 348 349 349 350 351 350 350 350 350 351 352 352 351 352 352 351 351 351 350 349 349 349 348 347 347 349 350 351 354 357 359 358 358 357 356 356 356 355 354 354 354 352 350 350 350 350 349 346 345 348 351 352 351 352 354
345 344 342 342 343 342 341 341 343 344 344 344 344 345 346 347 348 349 350 351 351 352 352 351 351 352 352 352 352 351 351 350 350 351 352 351 351 352 354 356 357 357 357 357 357 356 356 355 355 354 351 348 348 348 348 346 345 347 350 349 348 349 352
342 341 340 340 339 339 338 338 339 340 340 340 340 340 340 341 342 343 345 347 349 350 350 350 351 351 351 352 352 352 353 353 353 353 353 353 353 352 353 354 355 356 357 358 357 356 357 357 356 356 355 353 351 351 350 347 347 349 349 348 348 349 350
340 339 338 337 337 338 338 337 337 336 336 336 336 336 336 336 336 338 340 341 343 344 346 346 347 347 349 350 350 351 352 353 354 354 354 353 353 353 353 353 354 355 356 357 357 357 357 357 357 357 356 356 355 355 354 351 350 350 350 348 348 348 348
339 338 335 335 336 337 337 336 335 334 335 335 334 333 334 334 335 335 336 338 339 340 341 342 343 343 345 346 347 349 349 350 351 352 353 353 352 352 352 351 352 353 354 355 356 356 356 356 356 355 356 356 356 356 355 353 352 353 352 350 348 348 347
337 335 334 335 335 335 335 335 335 334 334 334 333 333 333 333 334 333 333 334 335 335 336 338 338 339 341 342 343 344 345 347 348 348 349 350 351 351 350 349 349 350 351 352 354 354 355 355 355 355 355 356 357 357 355 353 352 353 352 351 350 349 349
334 332 333 334 333 333 332 332 334 334 333 333 333 332 332 332 333 332 332 332 331 331 332 333 333 334 336 338 340 341 342 343 344 344 345 346 346 347 347 347 347 347 348 349 351 353 354 354 355 356 356 356 357 357 356 354 354 354 353 352 351 350 351
330 329 329 330 331 331 330 330 331 331 331 331 331 331 331 331 331 331 332 332 331 331 332 333 332 331 332 334 337 339 339 341 341 342 342 342 342 343 343 344 345 346 348 350 350 351 352 353 354 355 356 356 356 357 356 354 354 355 354 353 352 350 352
329 327 327 327 328 328 328 328 328 328 329 329 329 328 329 329 329 329 329 330 330 331 332 333 333 332 331 331 334 336 337 338 338 339 340 339 338 338 339 340 340 341 345 348 349 349 351 352 353 353 354 354 355 355 355 353 353 354 354 354 353 352 353
329 328 327 327 326 326 326 326 325 325 326 326 326 326 326 327 327 327 327 328 328 329 330 331 332 332 331 330 331 333 335 335 336 337 337 338 337 336 336 338 339 339 341 342 342 343 345 347 350 351 351 352 353 353 351 349 346 348 351 352 352 353 354
328 327 326 326 325 324 324 323 323 323 324 324 324 323 324 325 326 325 325 325 326 326 328 329 330 330 331 330 330 331 332 333 334 335 336 336 337 337 337 337 338 340 341 339 337 338 340 343 346 347 347 348 347 346 345 344 342 343 345 347 348 349 351
326 326 325 325 324 323 323 323 323 322 323 323 323 322 323 325 325 325 325 324 324 324 325 327 328 328 329 329 329 329 329 330 331 333 334 335 336 337 338 338 339 341 343 340 338 340 342 342 343 343 343 343 342 342 342 341 339 338 339 341 344 346 348
326 325 324 323 323 323 323 322 322 322 322 322 323 323 323 324 325 325 325 324 323 323 324 325 326 327 327 327 327 327 328 329 329 331 332 334 335 336 337 338 339 341 342 342 341 342 342 342 341 342 342 341 341 343 342 337 335 335 335 335 337 340 342
325 323 323 322 322 322 321 321 321 321 321 322 322 323 323 323 324 324 324 324 323 323 323 324 324 325 325 325 325 326 326 327 328 328 330 331 332 333 334 335 336 337 338 339 339 339 340 340 341 341 341 341 342 343 341 337 334 333 332 331 332 333 335
324 323 322 322 322 322 321 320 321 321 321 321 321 322 322 322 323 323 323 323 323 323 323 323 323 324 324 324 325 324 324 324 325 326 327 328 329 330 331 332 333 334 334 334 336 337 337 337 339 340 340 340 341 342 340 337 334 333 331 330 330 330 330
322 321 320 320 321 321 320 320 320 320 321 321 320 321 321 321 322 323 322 322 322 322 323 323 323 324 324 324 324 323 323 323 322 322 324 325 326 327 328 329 330 331 331 332 332 333 334 335 336 337 338 338 338 339 337 336 335 335 332 330 330 330 330
322 321 320 320 320 320 320 319 319 320 320 321 320 320 320 320 321 322 322 322 322 322 322 322 323 324 324 324 323 323 323 322 322 322 321 322 323 324 325 326 327 328 329 330 330 330 331 332 333 333 335 335 336 336 335 335 335 334 330 328 329 329 331
323 323 322 321 320 321 320 320 319 319 320 320 320 320 320 320 320 320 321 321 320 320 321 321 321 322 323 323 323 322 323 322 322 322 322 321 322 322 321 322 324 326 326 326 326 327 329 330 331 330 331 333 334 334 335 335 334 330 326 324 325 325 327
323 323 322 321 321 321 321 321 320 320 319 319 319 319 319 320 319 319 320 319 319 319 319 320 320 321 322 322 322 322 322 322 321 322 321 322 322 322 320 319 319 323 325 322 318 319 322 325 328 327 327 330 332 332 333 334 332 327 324 324 324 324 324
321 321 321 321 321 320 320 320 319 319 318 318 319 319 318 318 318 318 318 318 318 319 319 319 320 321 321 321 321 320 321 321 321 321 321 321 322 322 322 320 317 317 319 319 316 314 316 318 321 322 323 327 329 328 328 328 327 325 324 324 324 323 323
317 317 318 320 321 320 319 319 319 318 318 318 318 317 316 316 315 315 315 316 316 317 318 318 319 319 319 319 319 318 320 320 320 321 321 321 321 322 323 323 320 317 316 316 316 315 316 316 318 319 320 323 325 325 324 324 323 323 324 324 324 323 323
316 315 315 317 319 321 320 320 319 319 318 318 317 316 316 315 314 313 313 314 314 315 316 317 318 318 318 317 317 317 318 319 319 319 320 320 321 321 322 322 323 322 320 318 316 316 316 316 317 318 319 320 322 324 323 322 322 323 323 323 324 323 324
Wind_Speed
17 18 17 14 13 15 15 18 19 18 18 18 18 19 18 17 17 17 17 18 19 18 18 18 17 17 16 16 15 15 14 13 12 11 11 10 9 8 8 8 7 7 6 6 6 7 7 7 7 7 7 6 6 5 5 4 4 3 3 4 4 3 4
15 17 18 15 14 15 17 20 20 19 19 19 19 18 17 17 18 18 17 18 19 19 19 19 18 18 17 16 15 15 15 14 13 12 11 10 9 9 9 8 8 7 7 6 6 6 7 7 7 7 7 7 6 6 5 5 4 4 4 4 5 4 4
13 15 17 15 14 14 17 19 19 19 19 19 18 17 17 17 18 19 18 19 19 19 18 18 19 18 17 16 16 15 15 15 14 13 13 12 11 11 10 9 9 9 8 8 7 7 7 8 7 8 8 7 7 6 6 5 5 6 5 5 5 5 5
14 15 15 14 14 14 16 18 19 19 18 17 17 17 17 18 18 18 19 19 20 20 19 19 19 19 18 17 16 16 16 16 15 14 14 13 12 12 12 11 10 10 9 9 9 8 7 8 8 8 9 9 8 7 7 6 6 6 6 6 6 5 5
15 15 13 12 12 11 12 15 16 15 15 15 15 16 16 17 17 17 17 18 19 19 20 19 18 18 18 17 16 16 16 16 16 15 14 13 12 12 13 12 11 11 10 10 10 9 9 8 9 9 10 10 10 9 8 7 7 7 7 7 6 6 6
14 14 12 12 11 10 11 13 14 12 11 12 13 13 14 15 16 16 16 16 17 17 18 18 18 18 18 17 17 16 15 16 16 16 15 14 13 13 13 12 12 11 11 10 10 11 11 10 10 10 10 11 10 10 9 8 8 7 7 7 7 6 6
12 13 13 12 12 11 11 12 13 11 10 10 11 12 13 13 14 14 14 14 15 15 16 17 17 17 17 17 17 16 15 16 16 16 16 16 15 14 13 13 12 12 11 11 11 11 11 11 11 11 11 10 10 10 9 9 8 8 8 7 7 7 6
10 11 11 12 13 11 11 12 11 11 10 9 10 12 12 13 14 14 14 14 14 15 15 16 16 16 15 15 16 16 16 16 15 15 15 16 16 16 15 14 13 12 12 11 12 12 12 12 12 11 11 10 10 10 10 9 9 9 8 8 7 7 7
8 9 10 11 12 11 12 13 12 12 11 10 10 11 12 12 12 14 14 14 14 15 15 15 15 15 14 14 15 16 16 15 15 15 15 16 16 17 16 15 14 13 13 12 12 12 12 12 12 11 11 10 9 9 10 10 10 9 9 8 8 7 7
7 9 10 11 11 11 14 15 14 14 14 11 8 8 10 10 9 10 12 14 14 15 15 15 15 15 14 14 14 15 15 15 14 14 15 15 16 16 16 16 15 14 14 14 13 12 12 12 11 11 11 10 10 10 10 10 10 10 10 9 9 8 8
6 8 10 11 11 12 14 14 12 11 14 14 9 6 8 10 10 10 10 11 12 13 14 15 15 15 15 14 14 14 14 15 14 14 14 14 14 15 16 16 15 14 14 14 14 13 12 12 11 11 11 11 10 10 10 10 10 10 10 10 9 9 8
4 6 8 10 11 12 13 13 11 9 11 14 12 10 10 10 11 12 12 10 9 10 12 13 14 14 14 14 14 14 14 14 14 13 14 14 14 14 14 15 15 14 14 14 14 14 13 12 12 12 11 11 10 10 10 10 10 10 10 10 9 9 9
4 4 5 7 7 8 11 11 11 10 10 11 12 12 13 14 15 16 16 13 11 12 12 13 15 15 13 13 14 14 14 14 14 13 13 13 13 13 13 14 15 14 14 14 14 15 14 13 13 12 12 11 11 10 10 10 10 10 10 10 9 9 9
6 6 6 7 6 6 8 9 9 11 11 10 11 11 12 14 16 17 17 16 16 18 18 16 17 18 16 15 14 13 13 13 13 13 13 12 11 12 13 13 14 14 13 13 14 15 15 14 13 13 12 12 12 11 11 11 11 11 11 11 11 10 10
8 8 8 8 8 6 6 6 7 10 12 12 13 13 13 14 14 14 16 17 19 21 21 19 19 20 20 20 19 18 16 14 13 12 11 11 12 12 12 13 13 14 14 14 14 14 14 14 14 14 13 13 12 12 12 12 12 12 12 12 11 11 11
8 9 9 9 9 8 8 7 7 7 8 10 12 14 15 14 15 15 14 15 17 18 19 19 19 20 21 22 23 23 22 20 19 17 15 13 13 12 13 13 14 14 15 14 14 13 13 14 14 15 14 13 13 13 14 14 13 13 14 14 12 10 10
9 10 10 9 9 9 9 10 10 10 9 7 7 8 9 9 11 14 15 15 15 15 16 18 18 19 20 21 21 22 23 23 23 22 21 20 18 16 15 14 14 14 14 14 14 14 14 14 15 15 15 14 14 14 14 14 14 15 16 16 14 12 11
10 11 10 10 9 9 9 9 10 11 11 11 11 9 7 7 5 6 8 11 13 15 15 17 17 18 19 19 18 17 19 21 20 19 19 20 21 21 19 16 15 15 14 14 14 14 14 14 14 15 15 15 14 14 14 14 13 15 16 15 15 14 12
11 11 11 10 10 10 10 10 11 12 12 12 13 12 10 10 10 8 7 5 5 8 10 10 11 12 13 14 15 15 16 17 16 16 18 18 19 21 21 19 17 16 16 15 14 15 15 15 14 13 13 13 13 13 13 13 13 14 15 15 15 14 13
11 11 11 11 10 10 11 11 12 13 14 15 16 15 15 15 14 12 10 10 9 8 7 7 6 4 4 5 8 10 12 13 13 13 15 17 17 18 19 18 17 17 16 15 15 15 15 15 15 14 13 13 13 13 14 13 13 14 14 14 14 13 13
12 12 12 11 10 12 13 13 12 11 13 15 16 16 16 17 17 16 15 14 14 12 11 10 10 8 7 6 4 2 4 6 9 10 11 14 16 17 17 17 17 17 16 14 14 16 16 15 15 14 14 14 13 14 14 14 14 14 14 14 13 13 13
12 12 13 12 11 12 13 12 12 11 11 13 14 14 14 14 15 16 17 18 19 18 17 16 14 11 9 8 7 6 5 4 3 3 4 8 12 15 17 18 19 19 18 16 15 15 14 14 14 13 14 13 13 14 14 12 12 13 14 14 14 14 13
14 13 14 15 14 14 12 12 13 12 12 13 13 13 12 12 12 14 15 17 19 18 17 17 16 13 12 10 9 8 7 6 5 4 2 2 4 5 8 13 16 17 19 19 18 16 14 13 12 11 11 12 12 13 11 8 9 12 13 15 16 14 12
16 15 15 14 14 14 13 12 13 13 12 13 14 13 12 11 11 13 13 13 14 14 14 14 13 13 13 12 10 9 8 7 7 6 6 5 6 7 5 3 5 10 14 15 14 13 13 13 11 10 10 10 10 10 9 8 10 10 10 12 14 13 12
15 16 16 14 14 14 13 12 12 12 12 12 13 12 11 11 12 12 11 11 11 12 12 12 11 11 12 12 11 10 10 9 8 7 7 6 7 9 10 9 8 6 8 8 7 6 8 9 9 9 9 8 8 9 8 6 6 6 7 9 11 12 11
14 15 16 15 15 14 13 12 12 12 12 11 11 10 10 11 12 11 11 10 10 11 12 11 10 10 10 11 11 11 11 11 10 9 8 7 6 7 8 9 9 9 7 5 4 4 5 7 8 7 7 6 5 5 4 3 3 2 2 5 8 9 9
13 14 15 15 15 14 13 11 11 11 11 9 9 9 9 11 12 11 10 10 10 11 10 9 9 10 11 11 11 11 12 12 11 10 9 8 7 6 6 6 6 6 6 6 5 4 3 3 5 5 4 5 5 4 3 3 2 3 3 2 4 5 5
12 13 13 12 12 12 11 11 11 11 10 9 8 9 9 10 11 10 9 10 10 9 8 8 9 10 10 11 11 12 12 12 11 10 10 10 9 8 7 6 5 6 6 6 6 7 7 6 5 3 2 2 2 1 1 2 2 1 1 1 2 2 1
10 10 10 9 9 10 10 10 10 10 9 9 9 9 9 10 11 10 9 9 9 7 7 7 8 9 9 10 11 10 10 11 11 10 10 10 10 10 9 8 7 7 8 8 8 9 9 8 7 7 5 3 3 4 4 4 4 4 3 2 2 2 1
11 9 9 8 7 7 7 9 10 10 10 9 9 9 9 9 10 9 9 8 7 7 7 7 7 7 8 8 8 8 9 9 10 9 9 10 10 10 10 10 9 9 8 8 8 8 8 7 6 6 6 6 6 7 6 5 5 5 5 4 4 5 4
13 12 11 8 7 5 6 8 10 10 10 10 10 9 8 8 9 9 8 7 6 6 7 7 6 7 7 7 7 7 7 7 8 8 8 8 9 9 9 9 9 9 8 8 8 8 7 6 5 4 5 6 7 7 6 6 5 5 6 5 5 6 7
12 12 12 11 8 6 6 8 10 11 11 10 9 8 8 7 7 8 7 6 6 6 6 6 6 6 6 6 6 6 6 6 6 7 7 7 7 8 8 8 8 8 8 7 7 7 7 6 4 3 4 5 5 5 4 4 3 4 4 5 6 7 7
11 12 12 12 10 8 6 8 10 11 10 8 7 7 7 6 6 6 6 5 6 6 6 6 6 6 5 5 5 6 6 6 6 6 6 6 6 6 6 6 6 6 6 6 6 5 5 4 3 3 3 3 2 2 2 2 2 3 5 6 7 7 7
7 8 9 10 9 7 7 9 10 9 7 6 6 6 6 6 6 6 6 6 6 6 6 5 5 5 5 5 5 5 5 6 5 5 5 6 6 6 7 6 5 5 6 6 5 4 3 2 2 3 3 2 2 1 1 1 2 4 6 7 8 8 9
4 4 6 7 6 5 7 9 9 8 7 6 5 5 5 5 6 6 6 6 5 5 5 5 4 4 4 4 5 5 4 4 5 5 5 5 5 6 7 7 6 5 5 6 5 3 2 2 2 3 3 3 3 3 2 3 3 5 6 7 8 9 10
6 5 4 4 4 6 7 7 7 7 6 6 5 4 5 5 5 6 6 6 5 5 5 4 3 3 4 4 5 5 5 4 5 5 5 5 4 4 5 6 6 5 4 4 4 3 2 0 1 2 2 2 2 3 3 2 3 4 5 6 7 8 9
13 10 7 5 5 6 6 6 7 7 6 5 5 5 5 5 5 6 6 6 6 5 5 4 4 4 4 5 6 6 6 5 5 5 5 5 5 4 2 3 4 4 4 4 4 3 2 1 0 1 1 1 1 1 2 2 3 4 5 5 6 7 8
19 20 18 13 8 8 9 8 8 8 7 6 6 6 5 5 5 6 6 6 6 5 5 5 4 4 4 5 5 5 6 5 5 5 4 4 4 4 3 1 1 3 3 4 5 4 3 2 2 1 1 2 2 1 2 3 4 4 4 5 6 7 7
Wind_Direction
183 187 198 200 194 192 191 194 196 193 192 193 195 196 194 194 192 189 187 186 189 192 194 197 199 200 201 203 203 202 201 203 205 205 206 207 207 206 207 212 213 215 217 216 214 213 210 208 206 204 202 201 203 203 206 214 217 213 215 222 229 240 247
185 188 194 196 194 192 189 192 195 192 192 196 197 197 196 192 190 189 186 184 188 193 195 197 199 201 203 204 205 205 204 205 206 208 209 209 209 210 211 214 216 219 223 222 218 214 210 208 207 207 206 206 205 203 207 210 211 216 218 218 224 228 235
186 190 191 191 194 193 189 191 193 192 194 197 198 199 197 191 189 188 186 185 187 192 196 199 201 203 204 204 206 207 207 208 209 210 212 211 211 212 214 216 219 221 221 221 220 215 209 204 205 208 206 207 208 205 209 208 208 217 217 218 229 225 223
184 187 187 187 190 192 190 190 193 194 197 199 200 200 196 191 190 190 190 189 188 191 196 200 202 204 205 205 207 208 208 210 211 212 215 216 215 215 215 215 218 221 219 217 217 214 209 202 201 204 203 205 207 204 208 210 207 209 210 216 226 225 229
180 179 176 179 181 183 183 183 183 186 193 196 197 197 194 191 191 193 194 194 194 195 198 201 203 204 205 205 207 208 209 210 211 213 216 218 218 216 216 217 218 218 217 214 213 211 209 205 203 202 200 202 204 204 206 208 208 206 204 211 218 224 233
177 173 173 179 177 170 169 168 164 168 185 189 189 191 189 189 192 194 194 195 197 197 196 201 204 204 205 206 208 208 208 209 211 213 216 218 219 217 216 219 220 218 215 213 211 207 205 208 208 204 201 200 202 204 203 202 206 206 203 208 213 224 235
176 173 177 182 178 168 156 149 149 160 180 186 186 188 187 188 190 189 190 191 193 193 194 199 204 205 206 207 208 209 209 211 212 214 217 217 217 217 217 219 220 220 217 212 210 208 205 206 208 206 205 204 202 202 200 196 198 200 200 205 209 219 232
174 172 176 177 176 169 145 133 142 159 175 182 183 185 184 185 185 185 187 188 188 189 191 197 201 204 206 207 209 210 211 213 213 213 217 218 218 218 218 218 217 219 220 216 212 210 209 208 207 205 205 205 203 201 198 193 196 201 200 204 210 218 229
163 169 174 173 175 168 145 134 139 148 160 172 180 185 186 184 184 186 187 186 187 189 190 194 197 199 202 206 209 211 213 216 216 215 215 218 219 220 219 217 215 216 220 220 216 212 212 212 208 202 202 205 202 199 200 197 200 205 203 204 212 218 228
158 170 173 170 167 158 142 137 139 144 154 166 177 180 173 168 173 184 189 189 191 191 190 191 194 196 199 203 207 212 216 218 218 218 218 219 220 220 220 220 216 214 217 221 220 214 211 212 210 203 201 205 203 201 205 203 203 207 206 207 212 217 225
157 167 169 165 161 154 146 142 144 148 159 171 176 165 154 156 163 173 182 188 191 193 191 188 190 192 196 201 206 211 217 220 220 220 220 221 221 220 219 220 219 215 214 218 220 215 209 208 208 205 204 209 208 206 208 209 209 210 211 212 213 215 220
144 158 167 167 166 165 160 157 157 154 160 168 172 174 178 182 185 188 191 191 192 194 192 187 186 189 194 199 202 206 212 218 220 220 221 222 224 223 219 219 220 217 214 215 217 217 212 207 205 205 207 210 210 209 209 212 214 216 217 219 218 218 220
101 122 150 153 156 168 173 176 177 171 165 163 165 175 188 193 198 206 208 206 204 201 196 192 188 186 187 192 197 201 206 213 217 220 221 221 223 226 223 220 219 218 217 216 216 216 215 212 208 206 207 210 212 213 211 213 217 219 223 225 225 224 226
95 104 114 115 118 143 164 176 183 179 173 172 172 176 186 192 197 203 204 202 207 211 210 208 203 196 192 193 198 199 200 207 215 217 219 221 224 226 226 224 221 220 221 219 218 218 218 218 214 210 210 212 215 216 215 215 218 221 224 228 230 230 230
111 113 114 112 113 124 139 154 174 180 177 176 177 177 182 188 191 194 196 198 206 213 214 215 215 215 214 214 218 218 214 214 215 214 214 217 220 223 225 227 225 221 220 219 219 220 220 222 222 218 216 216 216 220 221 221 222 222 221 222 227 231 234
114 112 108 103 98 96 97 104 120 145 160 169 176 181 184 187 187 188 191 195 202 207 210 212 215 220 223 223 226 227 226 224 224 224 225 222 219 218 221 225 226 223 219 216 217 221 223 225 226 225 223 221 220 222 226 228 228 224 219 217 221 232 240
108 103 98 94 93 90 89 90 94 100 106 118 139 160 170 178 191 198 197 200 203 203 206 210 211 214 218 220 223 225 225 226 227 229 232 233 230 224 221 220 221 221 219 215 214 218 220 222 226 229 230 230 229 229 230 232 231 226 225 224 224 229 239
107 105 99 98 97 92 90 90 93 94 92 89 87 90 103 117 140 179 190 199 209 210 211 214 214 214 215 216 217 220 222 224 226 227 229 231 232 231 226 219 216 216 216 215 214 214 217 219 224 229 232 234 235 234 234 234 231 228 230 230 226 226 233
107 107 104 104 104 100 98 93 90 90 87 84 82 78 79 85 88 88 91 111 163 189 195 202 208 212 216 218 220 222 222 220 220 221 224 226 226 225 221 216 215 215 215 215 214 213 215 217 219 223 227 232 236 237 238 238 234 232 234 233 230 230 234
114 111 106 104 105 104 101 96 91 90 88 87 86 87 85 83 84 87 88 90 92 100 115 120 119 131 162 202 221 226 222 217 218 222 224 223 221 218 216 216 217 216 215 216 214 213 216 218 219 219 220 224 230 234 238 239 236 237 239 237 233 233 236
120 116 109 105 104 104 103 102 98 95 96 95 93 92 93 93 96 97 97 102 102 96 96 100 94 90 94 95 94 138 192 206 217 225 224 223 223 221 221 224 225 221 218 218 216 216 220 223 222 222 223 225 228 232 238 241 240 239 240 240 239 239 241
121 117 114 110 105 100 98 101 102 97 96 99 98 95 96 99 104 102 99 100 101 99 100 101 96 88 87 89 88 89 96 123 170 205 224 223 222 220 222 227 232 232 231 229 225 221 221 224 226 224 224 225 227 233 239 239 234 232 235 240 243 244 245
115 113 113 111 107 100 94 95 98 96 94 96 96 93 92 94 96 96 95 94 94 94 94 92 89 85 84 83 83 89 95 98 103 98 96 177 193 200 213 220 225 231 234 234 229 221 213 214 219 223 226 229 230 233 235 230 225 230 239 244 245 243 239
113 113 111 109 107 102 94 92 95 97 98 96 93 88 86 85 86 86 85 86 88 89 84 78 77 79 79 75 71 76 84 87 90 90 88 97 98 89 90 138 193 207 217 221 220 213 206 205 207 212 217 222 225 226 224 225 233 241 247 251 250 243 234
120 123 118 112 108 101 94 92 94 95 93 91 91 90 84 81 80 80 79 80 84 85 79 72 69 69 70 70 70 72 76 79 83 86 85 87 93 92 85 74 75 112 163 184 184 173 174 179 185 197 207 214 228 231 222 220 236 245 245 249 250 243 235
127 125 119 113 107 102 97 94 94 92 87 83 86 89 86 81 78 75 75 76 75 75 72 67 65 66 65 66 68 69 71 74 76 78 77 76 78 86 93 90 80 86 109 126 114 102 117 135 143 158 175 176 170 168 150 108 50 1 274 247 248 242 233
107 108 110 111 108 105 102 98 93 90 86 82 81 81 78 78 76 71 68 70 70 70 69 66 65 67 66 64 63 61 64 70 74 74 75 75 73 71 82 97 95 93 102 103 93 90 109 144 146 141 147 149 138 119 98 79 42 7 350 305 282 272 250
73 82 93 102 104 106 107 105 101 96 91 87 84 82 81 79 76 71 66 66 65 65 69 69 68 68 66 64 63 60 61 65 69 71 73 77 81 81 80 85 90 95 106 110 111 117 125 136 144 140 150 201 214 220 165 131 119 70 352 310 296 296 256
83 78 83 92 101 109 113 109 103 95 89 86 81 80 84 84 82 77 69 63 59 58 65 68 69 71 70 66 64 62 60 61 62 65 69 72 79 85 84 87 91 97 106 112 115 118 114 110 115 124 123 117 115 120 119 103 83 67 43 4 331 341 36
120 103 88 75 72 85 101 105 102 93 86 83 78 77 80 84 86 83 74 64 55 52 59 61 64 70 72 69 68 64 62 62 61 61 63 65 70 75 75 77 81 86 94 103 108 109 106 103 112 123 119 109 104 102 93 72 57 53 44 24 3 2 8
131 118 108 91 72 74 89 94 94 90 83 77 72 72 75 80 86 83 73 63 55 51 53 56 57 61 64 65 67 65 64 69 67 63 62 59 61 66 64 64 68 67 68 75 80 82 84 90 100 108 108 111 114 110 99 87 76 62 48 38 32 26 23
135 130 127 123 116 108 96 84 80 78 74 69 65 64 64 67 77 79 71 62 56 53 50 50 53 56 55 58 63 60 59 65 65 64 63 59 58 61 59 59 62 60 55 58 62 63 65 67 69 79 95 108 116 114 109 106 98 75 50 37 33 25 19
149 150 147 143 139 134 112 86 76 71 64 56 51 53 56 58 64 72 72 69 65 60 53 50 51 51 50 53 58 57 54 53 51 53 58 58 56 58 58 57 61 62 57 54 54 55 57 62 62 62 74 95 109 114 117 117 94 60 30 19 19 13 7
150 152 145 141 146 148 127 107 101 97 89 67 46 41 48 55 60 65 65 63 65 66 63 59 54 47 43 43 45 47 49 49 45 45 53 58 56 54 50 46 49 60 59 50 45 43 40 41 45 43 41 42 38 24 344 337 25 22 9 4 3 1 359
118 127 130 133 143 143 122 115 119 120 111 94 69 53 54 56 58 61 60 58 61 66 67 65 60 51 46 43 41 41 43 47 47 41 41 53 65 66 54 38 33 48 56 45 34 32 36 36 30 22 17 14 9 356 333 327 337 345 348 346 343 343 344
118 94 102 135 147 139 124 118 124 124 114 106 101 91 83 72 63 61 58 55 57 61 61 60 57 53 46 39 35 30 23 31 44 39 31 33 48 67 68 51 41 47 57 48 35 28 29 23 331 346 357 4 350 337 318 294 295 305 316 323 323 324 327
160 153 167 189 175 151 144 143 146 145 135 127 127 122 112 102 88 75 64 55 51 51 53 53 53 52 46 37 29 18 8 14 27 30 29 29 28 33 62 82 77 71 57 43 44 58 77 104 251 278 275 249 261 314 312 283 276 287 298 304 308 312 315
178 178 180 184 181 171 171 173 167 160 154 153 156 150 137 123 105 90 77 64 53 46 44 44 45 46 44 40 32 16 5 9 15 15 19 26 24 22 19 17 121 125 95 51 39 49 68 76 79 108 207 229 220 221 277 292 292 294 295 297 300 304 307